owner,sensor,date,latitude,longitude,vertical_datum,sea_water_practical_salinity,qcFlag 
FWRI,ioos:station:FWRI:NPD:2,2013-07-01T04:59:00Z,27.3338,-82.5794,0.0,34.54,1111122 
FWRI,ioos:station:FWRI:NPD:2,2013-07-01T05:59:00Z,27.3338,-82.5794,0.0,34.32,1111122 
FWRI,ioos:station:FWRI:NPD:2,2013-07-01T06:59:00Z,27.3338,-82.5794,0.0,34.79,1111122 
FWRI,ioos:station:FWRI:NPD:2,2013-07-01T07:59:00Z,27.3338,-82.5794,0.0,34.84,1111122 
FWRI,ioos:station:FWRI:NPD:2,2013-07-01T08:59:00Z,27.3338,-82.5794,0.0,34.91,1111122 
FWRI,ioos:station:FWRI:NPD:2,2013-07-01T09:59:00Z,27.3338,-82.5794,0.0,34.92,1111122 
FWRI,ioos:station:FWRI:NPD:2,2013-07-01T10:59:00Z,27.3338,-82.5794,0.0,34.99,1111122 
FWRI,ioos:station:FWRI:NPD:2,2013-07-01T11:59:00Z,27.3338,-82.5794,0.0,34.89,1111122 
FWRI,ioos:station:FWRI:NPD:2,2013-07-01T12:59:00Z,27.3338,-82.5794,0.0,34.9,1111122 
FWRI,ioos:station:FWRI:NPD:2,2013-07-01T13:59:00Z,27.3338,-82.5794,0.0,34.92,1111122 
FWRI,ioos:station:FWRI:NPD:2,2013-07-01T14:59:00Z,27.3338,-82.5794,0.0,34.93,1111122 
FWRI,ioos:station:FWRI:NPD:2,2013-07-01T15:59:00Z,27.3338,-82.5794,0.0,34.94,1111122 
FWRI,ioos:station:FWRI:NPD:2,2013-07-01T16:59:00Z,27.3338,-82.5794,0.0,34.96,1111122 
FWRI,ioos:station:FWRI:NPD:2,2013-07-01T17:59:00Z,27.3338,-82.5794,0.0,34.96,1111122 
FWRI,ioos:station:FWRI:NPD:2,2013-07-01T18:59:00Z,27.3338,-82.5794,0.0,34.95,1111122 
FWRI,ioos:station:FWRI:NPD:2,2013-07-01T19:59:00Z,27.3338,-82.5794,0.0,34.98,1111122 
FWRI,ioos:station:FWRI:NPD:2,2013-07-01T20:59:00Z,27.3338,-82.5794,0.0,34.96,1111122 
FWRI,ioos:station:FWRI:NPD:2,2013-07-01T21:59:00Z,27.3338,-82.5794,0.0,34.94,1111122 
FWRI,ioos:station:FWRI:NPD:2,2013-07-01T22:59:00Z,27.3338,-82.5794,0.0,34.94,1111122 
FWRI,ioos:station:FWRI:NPD:2,2013-07-01T23:59:00Z,27.3338,-82.5794,0.0,34.96,1111122 
FWRI,ioos:station:FWRI:NPD:2,2013-07-02T00:59:00Z,27.3338,-82.5794,0.0,34.94,1111122 
FWRI,ioos:station:FWRI:NPD:2,2013-07-02T01:59:00Z,27.3338,-82.5794,0.0,34.94,1111122 
FWRI,ioos:station:FWRI:NPD:2,2013-07-02T02:59:00Z,27.3338,-82.5794,0.0,34.94,1111122 
FWRI,ioos:station:FWRI:NPD:2,2013-07-02T03:59:00Z,27.3338,-82.5794,0.0,34.95,1111122 
FWRI,ioos:station:FWRI:NPD:2,2013-07-02T04:59:00Z,27.3338,-82.5794,0.0,34.98,1111122 
FWRI,ioos:station:FWRI:NPD:2,2013-07-02T05:59:00Z,27.3338,-82.5794,0.0,34.97,1111122 
FWRI,ioos:station:FWRI:NPD:2,2013-07-02T06:59:00Z,27.3338,-82.5794,0.0,34.98,1111122 
FWRI,ioos:station:FWRI:NPD:2,2013-07-02T07:59:00Z,27.3338,-82.5794,0.0,34.97,1111122 
FWRI,ioos:station:FWRI:NPD:2,2013-07-02T08:59:00Z,27.3338,-82.5794,0.0,34.98,1111122 
FWRI,ioos:station:FWRI:NPD:2,2013-07-02T09:59:00Z,27.3338,-82.5794,0.0,34.97,1111122 
FWRI,ioos:station:FWRI:NPD:2,2013-07-02T10:59:00Z,27.3338,-82.5794,0.0,34.96,1111122 
FWRI,ioos:station:FWRI:NPD:2,2013-07-02T11:59:00Z,27.3338,-82.5794,0.0,34.97,1111122 
FWRI,ioos:station:FWRI:NPD:2,2013-07-02T12:59:00Z,27.3338,-82.5794,0.0,34.99,1111122 
FWRI,ioos:station:FWRI:NPD:2,2013-07-02T13:59:00Z,27.3338,-82.5794,0.0,35.0,1111122 
FWRI,ioos:station:FWRI:NPD:2,2013-07-02T14:59:00Z,27.3338,-82.5794,0.0,35.0,1111122 
FWRI,ioos:station:FWRI:NPD:2,2013-07-02T15:59:00Z,27.3338,-82.5794,0.0,34.99,1111122 
FWRI,ioos:station:FWRI:NPD:2,2013-07-02T16:59:00Z,27.3338,-82.5794,0.0,34.99,1111122 
FWRI,ioos:station:FWRI:NPD:2,2013-07-02T17:59:00Z,27.3338,-82.5794,0.0,35.01,1111122 
FWRI,ioos:station:FWRI:NPD:2,2013-07-03T19:59:00Z,27.3338,-82.5794,0.0,32.5,1111122 
FWRI,ioos:station:FWRI:NPD:2,2013-07-03T20:59:00Z,27.3338,-82.5794,0.0,32.08,1111122 
FWRI,ioos:station:FWRI:NPD:2,2013-07-03T21:59:00Z,27.3338,-82.5794,0.0,31.91,1111122 
FWRI,ioos:station:FWRI:NPD:2,2013-07-03T22:59:00Z,27.3338,-82.5794,0.0,31.48,1111122 
FWRI,ioos:station:FWRI:NPD:2,2013-07-03T23:59:00Z,27.3338,-82.5794,0.0,32.05,1111122 
FWRI,ioos:station:FWRI:NPD:2,2013-07-04T00:59:00Z,27.3338,-82.5794,0.0,31.84,1111122 
FWRI,ioos:station:FWRI:NPD:2,2013-07-04T01:59:00Z,27.3338,-82.5794,0.0,31.82,1111122 
FWRI,ioos:station:FWRI:NPD:2,2013-07-04T02:59:00Z,27.3338,-82.5794,0.0,33.03,1111122 
FWRI,ioos:station:FWRI:NPD:2,2013-07-04T03:59:00Z,27.3338,-82.5794,0.0,33.03,1111122 
FWRI,ioos:station:FWRI:NPD:2,2013-07-04T04:59:00Z,27.3338,-82.5794,0.0,32.51,1111122 
FWRI,ioos:station:FWRI:NPD:2,2013-07-04T05:59:00Z,27.3338,-82.5794,0.0,32.48,1111122 
FWRI,ioos:station:FWRI:NPD:2,2013-07-04T06:59:00Z,27.3338,-82.5794,0.0,32.78,1111122 
FWRI,ioos:station:FWRI:NPD:2,2013-07-04T07:59:00Z,27.3338,-82.5794,0.0,32.83,1111122 
FWRI,ioos:station:FWRI:NPD:2,2013-07-04T08:59:00Z,27.3338,-82.5794,0.0,32.91,1111122 
FWRI,ioos:station:FWRI:NPD:2,2013-07-04T09:59:00Z,27.3338,-82.5794,0.0,32.97,1111122 
FWRI,ioos:station:FWRI:NPD:2,2013-07-04T10:59:00Z,27.3338,-82.5794,0.0,33.22,1111122 
FWRI,ioos:station:FWRI:NPD:2,2013-07-04T11:59:00Z,27.3338,-82.5794,0.0,33.55,1111122 
FWRI,ioos:station:FWRI:NPD:2,2013-07-04T12:59:00Z,27.3338,-82.5794,0.0,33.72,1111122 
FWRI,ioos:station:FWRI:NPD:2,2013-07-04T13:59:00Z,27.3338,-82.5794,0.0,33.65,1111122 
FWRI,ioos:station:FWRI:NPD:2,2013-07-04T14:59:00Z,27.3338,-82.5794,0.0,33.85,1111122 
FWRI,ioos:station:FWRI:NPD:2,2013-07-04T15:59:00Z,27.3338,-82.5794,0.0,33.85,1111122 
FWRI,ioos:station:FWRI:NPD:2,2013-07-04T16:59:00Z,27.3338,-82.5794,0.0,33.83,1111122 
FWRI,ioos:station:FWRI:NPD:2,2013-07-04T17:59:00Z,27.3338,-82.5794,0.0,32.58,1111122 
FWRI,ioos:station:FWRI:NPD:2,2013-07-04T18:59:00Z,27.3338,-82.5794,0.0,31.67,1111122 
FWRI,ioos:station:FWRI:NPD:2,2013-07-04T19:59:00Z,27.3338,-82.5794,0.0,31.18,1111122 
FWRI,ioos:station:FWRI:NPD:2,2013-07-04T20:59:00Z,27.3338,-82.5794,0.0,30.97,1111122 
FWRI,ioos:station:FWRI:NPD:2,2013-07-04T21:59:00Z,27.3338,-82.5794,0.0,31.14,1111122 
FWRI,ioos:station:FWRI:NPD:2,2013-07-04T22:59:00Z,27.3338,-82.5794,0.0,31.17,1111122 
FWRI,ioos:station:FWRI:NPD:2,2013-07-04T23:59:00Z,27.3338,-82.5794,0.0,31.3,1111122 
FWRI,ioos:station:FWRI:NPD:2,2013-07-05T00:59:00Z,27.3338,-82.5794,0.0,31.6,1111122 
FWRI,ioos:station:FWRI:NPD:2,2013-07-05T01:59:00Z,27.3338,-82.5794,0.0,32.1,1111122 
FWRI,ioos:station:FWRI:NPD:2,2013-07-05T02:59:00Z,27.3338,-82.5794,0.0,32.57,1111122 
FWRI,ioos:station:FWRI:NPD:2,2013-07-05T03:59:00Z,27.3338,-82.5794,0.0,32.68,1111122 
FWRI,ioos:station:FWRI:NPD:2,2013-07-05T04:59:00Z,27.3338,-82.5794,0.0,32.68,1111122 
FWRI,ioos:station:FWRI:NPD:2,2013-07-05T05:59:00Z,27.3338,-82.5794,0.0,32.71,1111122 
FWRI,ioos:station:FWRI:NPD:2,2013-07-05T06:59:00Z,27.3338,-82.5794,0.0,32.74,1111122 
FWRI,ioos:station:FWRI:NPD:2,2013-07-05T07:59:00Z,27.3338,-82.5794,0.0,32.76,1111122 
FWRI,ioos:station:FWRI:NPD:2,2013-07-05T08:59:00Z,27.3338,-82.5794,0.0,32.94,1111122 
FWRI,ioos:station:FWRI:NPD:2,2013-07-05T09:59:00Z,27.3338,-82.5794,0.0,33.14,1111122 
FWRI,ioos:station:FWRI:NPD:2,2013-07-05T10:59:00Z,27.3338,-82.5794,0.0,33.25,1111122 
FWRI,ioos:station:FWRI:NPD:2,2013-07-05T11:59:00Z,27.3338,-82.5794,0.0,33.4,1111122 
FWRI,ioos:station:FWRI:NPD:2,2013-07-05T12:59:00Z,27.3338,-82.5794,0.0,33.41,1111122 
FWRI,ioos:station:FWRI:NPD:2,2013-07-05T13:59:00Z,27.3338,-82.5794,0.0,33.45,1111122 
FWRI,ioos:station:FWRI:NPD:2,2013-07-05T14:59:00Z,27.3338,-82.5794,0.0,33.41,1111122 
FWRI,ioos:station:FWRI:NPD:2,2013-07-05T15:59:00Z,27.3338,-82.5794,0.0,33.4,1111122 
FWRI,ioos:station:FWRI:NPD:2,2013-07-05T16:59:00Z,27.3338,-82.5794,0.0,33.39,1111122 
FWRI,ioos:station:FWRI:NPD:2,2013-07-05T17:59:00Z,27.3338,-82.5794,0.0,33.42,1111122 
FWRI,ioos:station:FWRI:NPD:2,2013-07-05T18:59:00Z,27.3338,-82.5794,0.0,31.51,1111122 
FWRI,ioos:station:FWRI:NPD:2,2013-07-05T19:59:00Z,27.3338,-82.5794,0.0,30.84,1111122 
FWRI,ioos:station:FWRI:NPD:2,2013-07-05T20:59:00Z,27.3338,-82.5794,0.0,30.72,1111122 
FWRI,ioos:station:FWRI:NPD:2,2013-07-05T21:59:00Z,27.3338,-82.5794,0.0,30.86,1111122 
FWRI,ioos:station:FWRI:NPD:2,2013-07-05T22:59:00Z,27.3338,-82.5794,0.0,30.97,1111122 
FWRI,ioos:station:FWRI:NPD:2,2013-07-05T23:59:00Z,27.3338,-82.5794,0.0,30.99,1111122 
FWRI,ioos:station:FWRI:NPD:2,2013-07-06T00:59:00Z,27.3338,-82.5794,0.0,31.07,1111122 
FWRI,ioos:station:FWRI:NPD:2,2013-07-06T01:59:00Z,27.3338,-82.5794,0.0,31.72,1111122 
FWRI,ioos:station:FWRI:NPD:2,2013-07-06T02:59:00Z,27.3338,-82.5794,0.0,32.93,1111122 
FWRI,ioos:station:FWRI:NPD:2,2013-07-06T03:59:00Z,27.3338,-82.5794,0.0,33.11,1111122 
FWRI,ioos:station:FWRI:NPD:2,2013-07-06T04:59:00Z,27.3338,-82.5794,0.0,33.07,1111122 
FWRI,ioos:station:FWRI:NPD:2,2013-07-06T05:59:00Z,27.3338,-82.5794,0.0,32.99,1111122 
FWRI,ioos:station:FWRI:NPD:2,2013-07-06T06:59:00Z,27.3338,-82.5794,0.0,33.01,1111122 
FWRI,ioos:station:FWRI:NPD:2,2013-07-06T07:59:00Z,27.3338,-82.5794,0.0,33.05,1111122 
FWRI,ioos:station:FWRI:NPD:2,2013-07-06T08:59:00Z,27.3338,-82.5794,0.0,33.08,1111122 
FWRI,ioos:station:FWRI:NPD:2,2013-07-06T09:59:00Z,27.3338,-82.5794,0.0,33.1,1111122 
FWRI,ioos:station:FWRI:NPD:2,2013-07-06T10:59:00Z,27.3338,-82.5794,0.0,32.96,1111122 
FWRI,ioos:station:FWRI:NPD:2,2013-07-06T11:59:00Z,27.3338,-82.5794,0.0,32.99,1111122 
FWRI,ioos:station:FWRI:NPD:2,2013-07-06T12:59:00Z,27.3338,-82.5794,0.0,33.22,1111122 
FWRI,ioos:station:FWRI:NPD:2,2013-07-06T13:59:00Z,27.3338,-82.5794,0.0,33.23,1111122 
FWRI,ioos:station:FWRI:NPD:2,2013-07-06T14:59:00Z,27.3338,-82.5794,0.0,33.26,1111122 
FWRI,ioos:station:FWRI:NPD:2,2013-07-06T15:59:00Z,27.3338,-82.5794,0.0,33.27,1111122 
FWRI,ioos:station:FWRI:NPD:2,2013-07-06T16:59:00Z,27.3338,-82.5794,0.0,33.25,1111122 
FWRI,ioos:station:FWRI:NPD:2,2013-07-06T17:59:00Z,27.3338,-82.5794,0.0,33.0,1111122 
FWRI,ioos:station:FWRI:NPD:2,2013-07-06T18:59:00Z,27.3338,-82.5794,0.0,31.99,1111122 
FWRI,ioos:station:FWRI:NPD:2,2013-07-06T19:59:00Z,27.3338,-82.5794,0.0,31.4,1111122 
FWRI,ioos:station:FWRI:NPD:2,2013-07-06T20:59:00Z,27.3338,-82.5794,0.0,31.27,1111122 
FWRI,ioos:station:FWRI:NPD:2,2013-07-06T21:59:00Z,27.3338,-82.5794,0.0,31.25,1111122 
FWRI,ioos:station:FWRI:NPD:2,2013-07-06T22:59:00Z,27.3338,-82.5794,0.0,31.04,1111122 
FWRI,ioos:station:FWRI:NPD:2,2013-07-06T23:59:00Z,27.3338,-82.5794,0.0,31.01,1111122 
FWRI,ioos:station:FWRI:NPD:2,2013-07-07T00:59:00Z,27.3338,-82.5794,0.0,30.93,1111122 
FWRI,ioos:station:FWRI:NPD:2,2013-07-07T01:59:00Z,27.3338,-82.5794,0.0,30.94,1111122 
FWRI,ioos:station:FWRI:NPD:2,2013-07-07T02:59:00Z,27.3338,-82.5794,0.0,31.81,1111122 
FWRI,ioos:station:FWRI:NPD:2,2013-07-07T03:59:00Z,27.3338,-82.5794,0.0,32.64,1111122 
FWRI,ioos:station:FWRI:NPD:2,2013-07-07T04:59:00Z,27.3338,-82.5794,0.0,32.54,1111122 
FWRI,ioos:station:FWRI:NPD:2,2013-07-07T05:59:00Z,27.3338,-82.5794,0.0,32.54,1111122 
FWRI,ioos:station:FWRI:NPD:2,2013-07-07T06:59:00Z,27.3338,-82.5794,0.0,32.59,1111122 
FWRI,ioos:station:FWRI:NPD:2,2013-07-07T07:59:00Z,27.3338,-82.5794,0.0,32.56,1111122 
FWRI,ioos:station:FWRI:NPD:2,2013-07-07T08:59:00Z,27.3338,-82.5794,0.0,32.57,1111122 
FWRI,ioos:station:FWRI:NPD:2,2013-07-07T09:59:00Z,27.3338,-82.5794,0.0,32.56,1111122 
FWRI,ioos:station:FWRI:NPD:2,2013-07-07T10:59:00Z,27.3338,-82.5794,0.0,32.59,1111122 
FWRI,ioos:station:FWRI:NPD:2,2013-07-07T11:59:00Z,27.3338,-82.5794,0.0,32.58,1111122 
FWRI,ioos:station:FWRI:NPD:2,2013-07-07T12:59:00Z,27.3338,-82.5794,0.0,32.64,1111122 
FWRI,ioos:station:FWRI:NPD:2,2013-07-07T13:59:00Z,27.3338,-82.5794,0.0,32.93,1111122 
FWRI,ioos:station:FWRI:NPD:2,2013-07-07T14:59:00Z,27.3338,-82.5794,0.0,33.01,1111122 
FWRI,ioos:station:FWRI:NPD:2,2013-07-07T15:59:00Z,27.3338,-82.5794,0.0,33.1,1111122 
FWRI,ioos:station:FWRI:NPD:2,2013-07-07T16:59:00Z,27.3338,-82.5794,0.0,33.12,1111122 
FWRI,ioos:station:FWRI:NPD:2,2013-07-07T17:59:00Z,27.3338,-82.5794,0.0,33.08,1111122 
FWRI,ioos:station:FWRI:NPD:2,2013-07-07T18:59:00Z,27.3338,-82.5794,0.0,32.68,1111122 
FWRI,ioos:station:FWRI:NPD:2,2013-07-07T19:59:00Z,27.3338,-82.5794,0.0,31.52,1111122 
FWRI,ioos:station:FWRI:NPD:2,2013-07-07T20:59:00Z,27.3338,-82.5794,0.0,31.32,1111122 
FWRI,ioos:station:FWRI:NPD:2,2013-07-07T21:59:00Z,27.3338,-82.5794,0.0,31.27,1111122 
FWRI,ioos:station:FWRI:NPD:2,2013-07-07T22:59:00Z,27.3338,-82.5794,0.0,31.12,1111122 
FWRI,ioos:station:FWRI:NPD:2,2013-07-07T23:59:00Z,27.3338,-82.5794,0.0,31.13,1111122 
FWRI,ioos:station:FWRI:NPD:2,2013-07-08T00:59:00Z,27.3338,-82.5794,0.0,31.04,1111122 
FWRI,ioos:station:FWRI:NPD:2,2013-07-08T01:59:00Z,27.3338,-82.5794,0.0,31.01,1111122 
FWRI,ioos:station:FWRI:NPD:2,2013-07-08T02:59:00Z,27.3338,-82.5794,0.0,31.78,1111122 
FWRI,ioos:station:FWRI:NPD:2,2013-07-08T03:59:00Z,27.3338,-82.5794,0.0,32.71,1111122 
FWRI,ioos:station:FWRI:NPD:2,2013-07-08T04:59:00Z,27.3338,-82.5794,0.0,32.89,1111122 
FWRI,ioos:station:FWRI:NPD:2,2013-07-08T05:59:00Z,27.3338,-82.5794,0.0,32.9,1111122 
FWRI,ioos:station:FWRI:NPD:2,2013-07-08T06:59:00Z,27.3338,-82.5794,0.0,32.8,1111122 
FWRI,ioos:station:FWRI:NPD:2,2013-07-08T07:59:00Z,27.3338,-82.5794,0.0,32.77,1111122 
FWRI,ioos:station:FWRI:NPD:2,2013-07-08T08:59:00Z,27.3338,-82.5794,0.0,32.83,1111122 
FWRI,ioos:station:FWRI:NPD:2,2013-07-08T09:59:00Z,27.3338,-82.5794,0.0,32.43,1111122 
FWRI,ioos:station:FWRI:NPD:2,2013-07-08T10:59:00Z,27.3338,-82.5794,0.0,32.16,1111122 
FWRI,ioos:station:FWRI:NPD:2,2013-07-08T11:59:00Z,27.3338,-82.5794,0.0,32.53,1111122 
FWRI,ioos:station:FWRI:NPD:2,2013-07-08T12:59:00Z,27.3338,-82.5794,0.0,32.89,1111122 
FWRI,ioos:station:FWRI:NPD:2,2013-07-08T13:59:00Z,27.3338,-82.5794,0.0,32.96,1111122 
FWRI,ioos:station:FWRI:NPD:2,2013-07-08T14:59:00Z,27.3338,-82.5794,0.0,33.02,1111122 
FWRI,ioos:station:FWRI:NPD:2,2013-07-08T15:59:00Z,27.3338,-82.5794,0.0,33.21,1111122 
FWRI,ioos:station:FWRI:NPD:2,2013-07-08T16:59:00Z,27.3338,-82.5794,0.0,33.23,1111122 
FWRI,ioos:station:FWRI:NPD:2,2013-07-08T17:59:00Z,27.3338,-82.5794,0.0,33.31,1111122 
FWRI,ioos:station:FWRI:NPD:2,2013-07-08T18:59:00Z,27.3338,-82.5794,0.0,33.24,1111122 
FWRI,ioos:station:FWRI:NPD:2,2013-07-08T19:59:00Z,27.3338,-82.5794,0.0,32.52,1111122 
FWRI,ioos:station:FWRI:NPD:2,2013-07-08T20:59:00Z,27.3338,-82.5794,0.0,31.88,1111122 
FWRI,ioos:station:FWRI:NPD:2,2013-07-08T21:59:00Z,27.3338,-82.5794,0.0,31.81,1111122 
FWRI,ioos:station:FWRI:NPD:2,2013-07-08T22:59:00Z,27.3338,-82.5794,0.0,31.53,1111122 
FWRI,ioos:station:FWRI:NPD:2,2013-07-08T23:59:00Z,27.3338,-82.5794,0.0,31.4,1111122 
FWRI,ioos:station:FWRI:NPD:2,2013-07-09T00:59:00Z,27.3338,-82.5794,0.0,31.34,1111122 
FWRI,ioos:station:FWRI:NPD:2,2013-07-09T01:59:00Z,27.3338,-82.5794,0.0,31.38,1111122 
FWRI,ioos:station:FWRI:NPD:2,2013-07-09T02:59:00Z,27.3338,-82.5794,0.0,31.38,1111122 
FWRI,ioos:station:FWRI:NPD:2,2013-07-09T03:59:00Z,27.3338,-82.5794,0.0,32.11,1111122 
FWRI,ioos:station:FWRI:NPD:2,2013-07-09T04:59:00Z,27.3338,-82.5794,0.0,32.85,1111122 
FWRI,ioos:station:FWRI:NPD:2,2013-07-09T05:59:00Z,27.3338,-82.5794,0.0,33.05,1111122 
FWRI,ioos:station:FWRI:NPD:2,2013-07-09T06:59:00Z,27.3338,-82.5794,0.0,33.09,1111122 
FWRI,ioos:station:FWRI:NPD:2,2013-07-09T07:59:00Z,27.3338,-82.5794,0.0,33.08,1111122 
FWRI,ioos:station:FWRI:NPD:2,2013-07-09T08:59:00Z,27.3338,-82.5794,0.0,33.11,1111122 
FWRI,ioos:station:FWRI:NPD:2,2013-07-09T09:59:00Z,27.3338,-82.5794,0.0,33.01,1111122 
FWRI,ioos:station:FWRI:NPD:2,2013-07-09T10:59:00Z,27.3338,-82.5794,0.0,32.76,1111122 
FWRI,ioos:station:FWRI:NPD:2,2013-07-09T11:59:00Z,27.3338,-82.5794,0.0,32.46,1111122 
FWRI,ioos:station:FWRI:NPD:2,2013-07-09T12:59:00Z,27.3338,-82.5794,0.0,32.74,1111122 
FWRI,ioos:station:FWRI:NPD:2,2013-07-09T13:59:00Z,27.3338,-82.5794,0.0,33.03,1111122 
FWRI,ioos:station:FWRI:NPD:2,2013-07-09T14:59:00Z,27.3338,-82.5794,0.0,33.15,1111122 
FWRI,ioos:station:FWRI:NPD:2,2013-07-09T15:59:00Z,27.3338,-82.5794,0.0,33.3,1111122 
FWRI,ioos:station:FWRI:NPD:2,2013-07-09T16:59:00Z,27.3338,-82.5794,0.0,33.34,1111122 
FWRI,ioos:station:FWRI:NPD:2,2013-07-09T17:59:00Z,27.3338,-82.5794,0.0,33.35,1111122 
FWRI,ioos:station:FWRI:NPD:2,2013-07-09T18:59:00Z,27.3338,-82.5794,0.0,33.35,1111122 
FWRI,ioos:station:FWRI:NPD:2,2013-07-09T19:59:00Z,27.3338,-82.5794,0.0,33.37,1111122 
FWRI,ioos:station:FWRI:NPD:2,2013-07-09T20:59:00Z,27.3338,-82.5794,0.0,33.37,1111122 
FWRI,ioos:station:FWRI:NPD:2,2013-07-09T21:59:00Z,27.3338,-82.5794,0.0,33.36,1111122 
FWRI,ioos:station:FWRI:NPD:2,2013-07-09T22:59:00Z,27.3338,-82.5794,0.0,33.35,1111122 
FWRI,ioos:station:FWRI:NPD:2,2013-07-09T23:59:00Z,27.3338,-82.5794,0.0,31.65,1111122 
FWRI,ioos:station:FWRI:NPD:2,2013-07-10T00:59:00Z,27.3338,-82.5794,0.0,31.59,1111122 
FWRI,ioos:station:FWRI:NPD:2,2013-07-10T01:59:00Z,27.3338,-82.5794,0.0,31.52,1111122 
FWRI,ioos:station:FWRI:NPD:2,2013-07-10T02:59:00Z,27.3338,-82.5794,0.0,31.45,1111122 
FWRI,ioos:station:FWRI:NPD:2,2013-07-10T03:59:00Z,27.3338,-82.5794,0.0,31.68,1111122 
FWRI,ioos:station:FWRI:NPD:2,2013-07-10T04:59:00Z,27.3338,-82.5794,0.0,33.03,1111122 
FWRI,ioos:station:FWRI:NPD:2,2013-07-10T05:59:00Z,27.3338,-82.5794,0.0,33.51,1111122 
FWRI,ioos:station:FWRI:NPD:2,2013-07-10T06:59:00Z,27.3338,-82.5794,0.0,33.51,1111122 
FWRI,ioos:station:FWRI:NPD:2,2013-07-10T07:59:00Z,27.3338,-82.5794,0.0,33.33,1111122 
FWRI,ioos:station:FWRI:NPD:2,2013-07-10T08:59:00Z,27.3338,-82.5794,0.0,33.24,1111122 
FWRI,ioos:station:FWRI:NPD:2,2013-07-10T09:59:00Z,27.3338,-82.5794,0.0,33.27,1111122 
FWRI,ioos:station:FWRI:NPD:2,2013-07-10T10:59:00Z,27.3338,-82.5794,0.0,33.14,1111122 
FWRI,ioos:station:FWRI:NPD:2,2013-07-10T11:59:00Z,27.3338,-82.5794,0.0,32.58,1111122 
FWRI,ioos:station:FWRI:NPD:2,2013-07-10T12:59:00Z,27.3338,-82.5794,0.0,32.04,1111122 
FWRI,ioos:station:FWRI:NPD:2,2013-07-10T13:59:00Z,27.3338,-82.5794,0.0,32.3,1111122 
FWRI,ioos:station:FWRI:NPD:2,2013-07-10T14:59:00Z,27.3338,-82.5794,0.0,32.89,1111122 
FWRI,ioos:station:FWRI:NPD:2,2013-07-10T15:59:00Z,27.3338,-82.5794,0.0,33.1,1111122 
FWRI,ioos:station:FWRI:NPD:2,2013-07-10T16:59:00Z,27.3338,-82.5794,0.0,33.37,1111122 
FWRI,ioos:station:FWRI:NPD:2,2013-07-10T17:59:00Z,27.3338,-82.5794,0.0,33.51,1111122 
FWRI,ioos:station:FWRI:NPD:2,2013-07-10T18:59:00Z,27.3338,-82.5794,0.0,33.5,1111122 
FWRI,ioos:station:FWRI:NPD:2,2013-07-10T19:59:00Z,27.3338,-82.5794,0.0,33.48,1111122 
FWRI,ioos:station:FWRI:NPD:2,2013-07-10T20:59:00Z,27.3338,-82.5794,0.0,33.07,1111122 
FWRI,ioos:station:FWRI:NPD:2,2013-07-10T21:59:00Z,27.3338,-82.5794,0.0,32.45,1111122 
FWRI,ioos:station:FWRI:NPD:2,2013-07-10T22:59:00Z,27.3338,-82.5794,0.0,31.46,1111122 
FWRI,ioos:station:FWRI:NPD:2,2013-07-10T23:59:00Z,27.3338,-82.5794,0.0,31.4,1111122 
FWRI,ioos:station:FWRI:NPD:2,2013-07-11T00:59:00Z,27.3338,-82.5794,0.0,31.29,1111122 
FWRI,ioos:station:FWRI:NPD:2,2013-07-11T01:59:00Z,27.3338,-82.5794,0.0,31.21,1111122 
FWRI,ioos:station:FWRI:NPD:2,2013-07-11T02:59:00Z,27.3338,-82.5794,0.0,31.09,1111122 
FWRI,ioos:station:FWRI:NPD:2,2013-07-11T03:59:00Z,27.3338,-82.5794,0.0,31.19,1111122 
FWRI,ioos:station:FWRI:NPD:2,2013-07-11T04:59:00Z,27.3338,-82.5794,0.0,32.53,1111122 
FWRI,ioos:station:FWRI:NPD:2,2013-07-11T05:59:00Z,27.3338,-82.5794,0.0,33.26,1111122 
FWRI,ioos:station:FWRI:NPD:2,2013-07-11T06:59:00Z,27.3338,-82.5794,0.0,33.42,1111122 
FWRI,ioos:station:FWRI:NPD:2,2013-07-11T07:59:00Z,27.3338,-82.5794,0.0,33.43,1111122 
FWRI,ioos:station:FWRI:NPD:2,2013-07-11T08:59:00Z,27.3338,-82.5794,0.0,33.49,1111122 
FWRI,ioos:station:FWRI:NPD:2,2013-07-11T09:59:00Z,27.3338,-82.5794,0.0,33.48,1111122 
FWRI,ioos:station:FWRI:NPD:2,2013-07-11T10:59:00Z,27.3338,-82.5794,0.0,33.4,1111122 
FWRI,ioos:station:FWRI:NPD:2,2013-07-11T11:59:00Z,27.3338,-82.5794,0.0,32.79,1111122 
FWRI,ioos:station:FWRI:NPD:2,2013-07-11T12:59:00Z,27.3338,-82.5794,0.0,32.34,1111122 
FWRI,ioos:station:FWRI:NPD:2,2013-07-11T13:59:00Z,27.3338,-82.5794,0.0,31.89,1111122 
FWRI,ioos:station:FWRI:NPD:2,2013-07-11T14:59:00Z,27.3338,-82.5794,0.0,32.6,1111122 
FWRI,ioos:station:FWRI:NPD:2,2013-07-11T15:59:00Z,27.3338,-82.5794,0.0,33.16,1111122 
FWRI,ioos:station:FWRI:NPD:2,2013-07-11T16:59:00Z,27.3338,-82.5794,0.0,33.24,1111122 
FWRI,ioos:station:FWRI:NPD:2,2013-07-11T17:59:00Z,27.3338,-82.5794,0.0,33.32,1111122 
FWRI,ioos:station:FWRI:NPD:2,2013-07-11T18:59:00Z,27.3338,-82.5794,0.0,33.44,1111122 
FWRI,ioos:station:FWRI:NPD:2,2013-07-11T19:59:00Z,27.3338,-82.5794,0.0,33.42,1111122 
FWRI,ioos:station:FWRI:NPD:2,2013-07-11T20:59:00Z,27.3338,-82.5794,0.0,33.37,1111122 
FWRI,ioos:station:FWRI:NPD:2,2013-07-11T21:59:00Z,27.3338,-82.5794,0.0,32.85,1111122 
FWRI,ioos:station:FWRI:NPD:2,2013-07-11T22:59:00Z,27.3338,-82.5794,0.0,32.72,1111122 
FWRI,ioos:station:FWRI:NPD:2,2013-07-11T23:59:00Z,27.3338,-82.5794,0.0,32.5,1111122 
FWRI,ioos:station:FWRI:NPD:2,2013-07-12T00:59:00Z,27.3338,-82.5794,0.0,32.37,1111122 
FWRI,ioos:station:FWRI:NPD:2,2013-07-12T01:59:00Z,27.3338,-82.5794,0.0,32.06,1111122 
FWRI,ioos:station:FWRI:NPD:2,2013-07-12T02:59:00Z,27.3338,-82.5794,0.0,31.85,1111122 
FWRI,ioos:station:FWRI:NPD:2,2013-07-12T03:59:00Z,27.3338,-82.5794,0.0,31.35,1111122 
FWRI,ioos:station:FWRI:NPD:2,2013-07-12T04:59:00Z,27.3338,-82.5794,0.0,32.02,1111122 
FWRI,ioos:station:FWRI:NPD:2,2013-07-12T05:59:00Z,27.3338,-82.5794,0.0,32.91,1111122 
FWRI,ioos:station:FWRI:NPD:2,2013-07-12T06:59:00Z,27.3338,-82.5794,0.0,33.07,1111122 
FWRI,ioos:station:FWRI:NPD:2,2013-07-12T07:59:00Z,27.3338,-82.5794,0.0,33.0,1111122 
FWRI,ioos:station:FWRI:NPD:2,2013-07-12T08:59:00Z,27.3338,-82.5794,0.0,33.01,1111122 
FWRI,ioos:station:FWRI:NPD:2,2013-07-12T09:59:00Z,27.3338,-82.5794,0.0,33.09,1111122 
FWRI,ioos:station:FWRI:NPD:2,2013-07-12T10:59:00Z,27.3338,-82.5794,0.0,33.12,1111122 
FWRI,ioos:station:FWRI:NPD:2,2013-07-12T11:59:00Z,27.3338,-82.5794,0.0,33.03,1111122 
FWRI,ioos:station:FWRI:NPD:2,2013-07-12T12:59:00Z,27.3338,-82.5794,0.0,32.5,1111122 
FWRI,ioos:station:FWRI:NPD:2,2013-07-12T13:59:00Z,27.3338,-82.5794,0.0,31.94,1111122 
FWRI,ioos:station:FWRI:NPD:2,2013-07-12T14:59:00Z,27.3338,-82.5794,0.0,31.95,1111122 
FWRI,ioos:station:FWRI:NPD:2,2013-07-12T15:59:00Z,27.3338,-82.5794,0.0,32.4,1111122 
FWRI,ioos:station:FWRI:NPD:2,2013-07-12T16:59:00Z,27.3338,-82.5794,0.0,32.82,1111122 
FWRI,ioos:station:FWRI:NPD:2,2013-07-12T17:59:00Z,27.3338,-82.5794,0.0,32.92,1111122 
FWRI,ioos:station:FWRI:NPD:2,2013-07-12T18:59:00Z,27.3338,-82.5794,0.0,32.93,1111122 
FWRI,ioos:station:FWRI:NPD:2,2013-07-12T19:59:00Z,27.3338,-82.5794,0.0,32.97,1111122 
FWRI,ioos:station:FWRI:NPD:2,2013-07-12T20:59:00Z,27.3338,-82.5794,0.0,32.96,1111122 
FWRI,ioos:station:FWRI:NPD:2,2013-07-12T21:59:00Z,27.3338,-82.5794,0.0,32.71,1111122 
FWRI,ioos:station:FWRI:NPD:2,2013-07-12T22:59:00Z,27.3338,-82.5794,0.0,32.28,1111122 
FWRI,ioos:station:FWRI:NPD:2,2013-07-12T23:59:00Z,27.3338,-82.5794,0.0,32.07,1111122 
FWRI,ioos:station:FWRI:NPD:2,2013-07-13T00:59:00Z,27.3338,-82.5794,0.0,32.08,1111122 
FWRI,ioos:station:FWRI:NPD:2,2013-07-13T01:59:00Z,27.3338,-82.5794,0.0,32.02,1111122 
FWRI,ioos:station:FWRI:NPD:2,2013-07-13T02:59:00Z,27.3338,-82.5794,0.0,31.67,1111122 
FWRI,ioos:station:FWRI:NPD:2,2013-07-13T03:59:00Z,27.3338,-82.5794,0.0,31.36,1111122 
FWRI,ioos:station:FWRI:NPD:2,2013-07-13T04:59:00Z,27.3338,-82.5794,0.0,31.46,1111122 
FWRI,ioos:station:FWRI:NPD:2,2013-07-13T05:59:00Z,27.3338,-82.5794,0.0,32.57,1111122 
FWRI,ioos:station:FWRI:NPD:2,2013-07-13T06:59:00Z,27.3338,-82.5794,0.0,33.07,1111122 
FWRI,ioos:station:FWRI:NPD:2,2013-07-13T07:59:00Z,27.3338,-82.5794,0.0,33.13,1111122 
FWRI,ioos:station:FWRI:NPD:2,2013-07-13T08:59:00Z,27.3338,-82.5794,0.0,33.27,1111122 
FWRI,ioos:station:FWRI:NPD:2,2013-07-13T09:59:00Z,27.3338,-82.5794,0.0,33.31,1111122 
FWRI,ioos:station:FWRI:NPD:2,2013-07-13T10:59:00Z,27.3338,-82.5794,0.0,33.32,1111122 
FWRI,ioos:station:FWRI:NPD:2,2013-07-13T11:59:00Z,27.3338,-82.5794,0.0,33.09,1111122 
FWRI,ioos:station:FWRI:NPD:2,2013-07-13T12:59:00Z,27.3338,-82.5794,0.0,32.66,1111122 
FWRI,ioos:station:FWRI:NPD:2,2013-07-13T13:59:00Z,27.3338,-82.5794,0.0,32.33,1111122 
FWRI,ioos:station:FWRI:NPD:2,2013-07-13T14:59:00Z,27.3338,-82.5794,0.0,32.27,1111122 
FWRI,ioos:station:FWRI:NPD:2,2013-07-13T15:59:00Z,27.3338,-82.5794,0.0,32.03,1111122 
FWRI,ioos:station:FWRI:NPD:2,2013-07-13T16:59:00Z,27.3338,-82.5794,0.0,32.36,1111122 
FWRI,ioos:station:FWRI:NPD:2,2013-07-13T17:59:00Z,27.3338,-82.5794,0.0,32.83,1111122 
FWRI,ioos:station:FWRI:NPD:2,2013-07-13T18:59:00Z,27.3338,-82.5794,0.0,32.92,1111122 